Date,TemperatureHighF,TemperatureAvgF,TemperatureLowF,DewpointHighF,DewpointAvgF,DewpointLowF,HumidityHigh,HumidityAvg,HumidityLow,PressureMaxIn,PressureMinIn,WindSpeedMaxMPH,WindSpeedAvgMPH,GustSpeedMaxMPH,PrecipitationSumIn
2012-1-1,45.5,39.5,35.5,41.0,36.8,30.0,97,90,74,30.00,29.50,28,1,0,0.14
2012-1-2,36.9,30.9,21.8,31.0,22.7,12.0,91,72,57,29.73,29.53,21,8,0,0.00
2012-1-3,21.4,10.9,1.7,16.0,1.5,-7.0,83,66,57,30.18,29.73,24,12,0,0.00
2012-1-4,21.3,12.0,1.5,14.0,3.1,-7.0,75,68,62,30.19,29.81,3,0,0,0.00
2012-1-5,29.3,24.8,21.4,27.0,19.8,14.0,92,81,63,29.86,29.75,27,3,0,0.00
2012-1-6,44.3,31.8,25.0,31.0,26.0,21.0,92,80,59,29.78,29.58,12,0,0,0.05
2012-1-7,44.9,35.6,29.0,35.0,30.5,26.0,91,82,64,29.93,29.60,19,3,0,0.01
2012-1-8,35.5,28.2,17.8,28.0,19.5,14.0,87,70,61,30.29,29.93,21,10,0,0.00
2012-1-9,38.5,27.9,19.2,23.0,19.3,15.0,84,71,45,30.26,29.85,2,0,0,0.00
2012-1-10,38.3,35.0,31.6,33.0,25.8,20.0,88,70,59,29.94,29.71,22,5,0,0.01
2012-1-11,42.5,35.9,29.5,28.0,25.6,23.0,79,67,55,29.98,29.76,5,1,0,0.00
2012-1-12,36.2,35.2,33.5,35.0,32.6,29.0,95,90,78,29.75,29.33,9,2,0,1.02
2012-1-13,36.6,28.5,21.3,35.0,26.4,19.0,96,92,85,29.60,29.09,26,6,0,0.43
2012-1-14,24.8,12.2,-0.6,22.0,5.4,-9.0,89,74,66,30.16,29.61,19,10,0,0.00
2012-1-15,10.5,-0.2,-11.2,1.0,-7.6,-17.0,78,71,59,30.57,30.17,14,2,0,0.00
2012-1-16,28.8,12.3,-6.5,24.0,4.4,-12.0,87,71,58,30.57,29.96,4,1,0,0.00
2012-1-17,42.6,34.2,28.4,41.0,32.2,24.0,97,92,67,29.95,29.27,20,1,0,0.62
2012-1-18,38.3,20.1,7.4,27.0,11.3,2.0,87,69,57,30.15,29.45,36,13,0,0.00
2012-1-19,25.8,16.5,4.1,22.0,7.6,-1.0,87,70,45,30.15,29.80,20,2,0,0.00
2012-1-20,24.2,16.2,12.1,12.0,4.1,-4.0,85,60,42,30.26,29.85,24,7,0,0.00
2012-1-21,20.8,13.3,3.4,12.0,6.9,-1.0,85,76,57,30.33,30.09,6,0,0,0.00
2012-1-22,27.5,15.2,0.3,20.0,6.8,-4.0,84,70,50,30.46,30.24,5,0,0,0.00
2012-1-23,40.5,35.4,27.8,40.0,31.5,21.0,97,86,74,30.25,29.68,4,0,0,0.32
2012-1-24,40.8,34.8,31.5,40.0,32.2,27.0,97,90,82,30.08,29.69,19,3,0,0.03
2012-1-25,31.6,30.3,29.1,28.0,24.6,24.0,88,79,73,30.27,30.08,18,6,0,0.00
2012-1-26,34.3,30.2,27.2,32.0,27.3,24.0,95,89,72,30.17,29.68,4,0,0,0.15
2012-1-27,41.8,35.4,32.5,41.0,33.9,30.0,97,94,84,29.80,29.24,26,6,0,1.25
2012-1-28,39.8,34.2,30.4,31.0,27.4,21.0,91,76,61,29.91,29.69,18,4,0,0.01
2012-1-29,34.6,30.5,27.0,28.0,21.3,16.0,94,70,54,29.99,29.85,14,2,0,0.00
2012-1-30,27.9,23.6,19.4,27.0,20.1,15.0,95,86,71,30.19,29.85,24,2,0,0.00
2012-1-31,45.7,33.5,24.2,33.0,27.6,22.0,91,80,57,30.11,29.81,2,0,0,0.23
2012-2-1,44.5,37.4,34.1,44.0,33.3,29.0,98,86,75,30.00,29.73,27,7,0,0.20
2012-2-2,35.2,29.3,22.4,30.0,22.3,15.0,82,75,68,30.30,29.99,15,4,0,0.00
2012-2-3,32.7,25.6,16.1,31.0,20.9,12.0,94,82,71,30.44,30.25,12,1,0,0.00
2012-2-4,32.5,29.0,19.5,31.0,22.4,11.0,95,77,62,30.26,30.13,15,3,0,0.02
2012-2-5,32.4,23.6,15.2,19.0,14.1,10.0,83,68,50,30.18,30.08,12,2,0,0.00
2012-2-6,46.2,35.7,23.5,27.0,23.5,19.0,83,63,40,30.08,29.84,21,4,0,0.00
2012-2-7,36.9,31.0,18.9,29.0,21.8,6.0,83,69,54,30.27,29.89,21,5,0,0.00
2012-2-8,30.7,22.0,13.8,20.0,12.8,7.0,79,68,50,30.27,30.05,8,1,0,0.00
2012-2-9,37.3,28.7,22.9,23.0,19.9,18.0,87,71,46,30.09,30.01,14,1,0,0.00
2012-2-10,32.9,26.1,18.0,23.0,18.8,15.0,90,75,56,30.05,29.84,10,1,0,0.00
2012-2-11,30.0,22.9,8.8,23.0,15.8,-5.0,92,75,53,29.86,29.65,22,4,0,0.00
2012-2-12,17.0,11.6,6.7,12.0,2.2,-7.0,86,67,49,29.88,29.77,25,6,0,0.00
2012-2-13,34.1,25.9,15.1,22.0,17.6,12.0,89,72,53,29.93,29.80,20,6,0,0.01
2012-2-14,37.8,27.9,14.9,30.0,21.4,10.0,92,78,48,29.98,29.92,3,0,0,0.01
2012-2-15,36.0,33.1,31.3,33.0,30.6,29.0,95,90,83,30.22,29.97,5,0,0,0.04
2012-2-16,36.6,31.8,25.8,34.0,29.8,24.0,96,92,73,30.21,29.85,3,0,0,0.24
2012-2-17,39.6,34.6,30.3,36.0,30.1,21.0,96,85,48,29.96,29.85,23,4,0,0.05
2012-2-18,33.5,29.8,24.4,30.0,26.7,22.0,95,88,71,30.05,29.79,4,0,0,0.04
2012-2-19,32.8,26.2,17.5,26.0,21.7,15.0,91,83,70,30.09,30.00,9,2,0,0.06
2012-2-20,32.7,24.1,15.2,19.0,15.1,7.0,87,70,44,30.30,30.05,14,2,0,0.00
2012-2-21,38.8,27.6,14.9,32.0,19.8,12.0,94,74,49,30.31,29.68,6,1,0,0.05
2012-2-22,46.7,37.9,33.4,36.0,32.4,28.0,96,82,50,29.67,29.33,11,1,0,0.17
2012-2-23,39.1,33.6,27.9,33.0,29.7,25.0,96,86,61,29.71,29.31,21,3,0,0.05
2012-2-24,35.8,33.0,29.0,34.0,29.2,25.0,96,86,68,29.67,29.21,14,1,0,0.44
2012-2-25,35.3,28.8,23.3,29.0,22.2,12.0,92,77,61,30.00,29.22,33,18,0,0.01
2012-2-26,27.8,20.8,10.7,13.0,9.3,4.0,83,62,37,30.38,30.01,25,6,0,0.00
2012-2-27,44.9,32.6,19.5,28.0,20.9,12.0,78,63,46,30.33,29.93,26,4,0,0.01
2012-2-28,33.2,30.5,27.3,29.0,19.6,15.0,84,64,48,30.38,30.14,35,9,0,0.00
2012-2-29,32.7,29.8,26.6,30.0,24.8,19.0,92,82,68,30.32,29.67,9,1,0,0.03
2012-3-1,34.1,32.8,31.5,32.0,30.7,29.0,96,92,82,29.86,29.58,12,1,0,0.30
2012-3-2,39.8,34.3,31.3,34.0,31.4,30.0,96,89,77,29.95,29.56,8,1,0,0.61
2012-3-3,47.1,39.3,34.1,37.0,28.4,19.0,94,68,37,29.56,29.32,31,8,0,0.05
2012-3-4,35.0,29.0,20.6,25.0,20.2,14.0,83,70,57,29.70,29.54,18,8,0,0.00
2012-3-5,20.5,16.4,10.5,15.0,7.4,2.0,79,68,57,30.35,29.70,25,10,0,0.00
2012-3-6,36.2,21.5,7.7,18.0,11.3,3.0,84,67,45,30.55,30.35,4,0,0,0.00
2012-3-7,61.2,44.7,28.2,31.0,24.3,16.0,64,47,28,30.35,30.08,5,1,0,0.00
2012-3-8,58.0,46.9,32.2,50.0,39.7,29.0,94,77,48,30.08,29.62,29,4,0,0.31
2012-3-9,35.5,30.0,23.9,31.0,24.8,20.0,94,81,65,30.19,29.88,25,6,0,0.06
2012-3-10,30.3,25.1,20.2,20.0,17.8,15.0,84,74,63,30.50,30.20,21,4,0,0.01
2012-3-11,58.9,38.1,23.0,32.0,23.6,15.0,88,59,34,30.33,30.18,14,1,0,0.01
2012-3-12,61.5,42.9,30.4,37.0,31.2,28.0,91,68,32,30.22,29.95,3,0,0,0.00
2012-3-13,61.3,51.0,39.3,52.0,42.0,35.0,91,73,50,29.95,29.81,15,3,0,0.01
2012-3-14,51.9,41.4,30.4,40.0,30.9,24.0,96,69,39,30.16,29.92,21,4,0,0.00
2012-3-15,52.9,44.5,34.3,45.0,38.0,28.0,92,78,62,30.22,30.07,11,1,0,0.08
2012-3-16,49.9,44.8,40.9,48.0,42.8,39.0,97,92,84,30.18,30.00,5,0,0,0.41
2012-3-17,59.3,48.4,40.5,45.0,42.0,39.0,95,80,56,30.27,30.17,5,1,0,0.00
2012-3-18,74.0,56.1,43.6,52.0,45.7,39.0,92,70,42,30.19,30.01,4,0,0,0.00
2012-3-19,73.5,57.2,45.2,55.0,50.3,44.0,96,80,49,30.14,30.03,6,0,0,0.00
2012-3-20,74.7,60.0,47.9,56.0,51.8,46.0,97,77,46,30.22,30.12,4,0,0,0.00
2012-3-21,76.8,59.1,44.6,55.0,49.1,43.0,96,73,39,30.27,30.11,5,0,0,0.00
2012-3-22,74.6,60.7,48.3,55.0,51.5,47.0,96,74,47,30.16,30.01,13,2,0,0.00
2012-3-23,69.1,60.5,55.3,53.0,41.5,32.0,88,53,27,30.12,30.00,11,2,0,0.00
2012-3-24,57.5,51.9,46.8,36.0,30.7,23.0,66,45,30,30.02,29.88,4,0,0,0.03
2012-3-25,49.8,45.3,41.5,45.0,41.7,34.0,94,87,57,29.89,29.72,6,0,0,0.16
2012-3-26,47.6,35.4,29.3,45.0,19.1,2.0,95,54,30,30.19,29.69,35,21,0,0.00
2012-3-27,40.9,29.8,21.8,19.0,7.6,2.0,55,40,24,30.33,30.02,18,6,0,0.00
2012-3-28,55.6,43.8,34.1,43.0,29.9,9.0,88,61,29,30.02,29.45,18,2,0,0.14
2012-3-29,42.3,38.9,36.6,40.0,32.4,23.0,92,78,59,29.99,29.60,23,12,0,0.01
2012-3-30,44.6,37.4,28.5,23.0,16.8,8.0,69,46,23,30.08,29.89,20,5,0,0.00
2012-3-31,44.1,39.0,33.5,34.0,30.4,22.0,91,72,51,29.90,29.83,8,1,0,0.01
2012-4-1,40.3,37.8,35.9,36.0,34.2,33.0,94,87,76,29.84,29.62,7,1,0,0.15
2012-4-2,47.0,40.5,31.9,35.0,25.5,17.0,92,58,31,29.86,29.64,30,12,0,0.00
2012-4-3,49.4,38.7,29.5,26.0,17.6,11.0,84,46,24,29.94,29.74,17,4,0,0.00
2012-4-4,50.7,41.4,31.2,36.0,26.8,18.0,73,57,41,29.74,29.57,25,8,0,0.00
2012-4-5,41.3,37.0,33.4,30.0,24.8,21.0,80,62,45,29.93,29.71,21,12,0,0.00
2012-4-6,46.7,35.7,25.7,28.0,23.4,17.0,91,64,32,30.04,29.93,24,8,0,0.00
2012-4-7,50.2,39.2,24.7,28.0,21.3,15.0,84,53,28,30.09,29.97,26,8,0,0.00
2012-4-8,53.2,41.2,27.2,38.0,26.7,19.0,87,60,27,29.96,29.62,25,8,0,0.00
2012-4-9,48.0,41.9,35.9,35.0,30.8,23.0,88,67,37,29.62,29.55,28,15,0,0.02
2012-4-10,47.0,42.5,38.2,33.0,30.4,26.0,82,63,49,29.73,29.52,32,10,0,0.00
2012-4-11,47.9,40.4,36.2,37.0,34.6,31.0,92,80,54,29.94,29.72,26,4,0,0.07
2012-4-12,49.1,41.7,33.8,38.0,33.7,30.0,96,75,54,30.10,29.94,29,6,0,0.00
2012-4-13,55.6,43.6,28.7,34.0,28.8,24.0,91,60,31,30.18,30.08,21,5,0,0.00
2012-4-14,63.5,48.2,30.9,43.0,30.8,25.0,79,55,25,30.13,29.89,10,1,0,0.00
2012-4-15,63.2,56.1,51.1,58.0,51.4,43.0,97,85,68,29.91,29.84,1,0,0,0.09
2012-4-16,86.5,68.9,56.0,60.0,56.1,51.0,97,69,30,29.87,29.67,23,2,0,0.05
2012-4-17,63.7,50.5,38.6,51.0,36.2,29.0,77,59,46,30.26,29.85,27,12,0,0.00
2012-4-18,56.0,42.7,31.5,33.0,27.4,23.0,87,57,31,30.30,30.04,11,1,0,0.00
2012-4-19,70.1,52.5,34.1,47.0,36.6,28.0,82,57,31,30.04,29.84,15,2,0,0.00
2012-4-20,80.1,63.8,48.6,51.0,44.0,39.0,85,53,26,29.89,29.64,11,1,0,0.00
2012-4-21,62.4,50.8,41.5,52.0,45.6,39.0,95,83,55,29.83,29.62,13,2,0,0.46
2012-4-22,46.5,41.5,37.2,40.0,36.1,34.0,95,81,68,29.85,29.61,18,6,0,0.21
2012-4-23,44.8,39.1,36.3,42.0,36.4,33.0,95,90,83,29.59,29.12,18,4,0,0.84
2012-4-24,37.2,7.8,36.0,35.0,-71.3,-99.9,92,19,88,29.53,29.18,0,-786,0,0.00
2012-4-25,-200.0,0.0,200.0,-99.9,-99.9,-99.9,0,0,100,29.83,29.55,0,-999,0,0.00
2012-4-26,55.7,25.1,39.1,46.0,-30.8,-99.9,94,33,45,29.83,29.49,11,-504,0,0.14
2012-4-27,37.8,13.3,34.6,27.0,-54.7,-99.9,67,23,60,30.09,29.60,24,-632,0,0.00
2012-4-28,45.1,22.8,28.8,24.0,-33.0,-99.9,75,24,24,30.20,30.09,20,-421,0,0.00
2012-4-29,49.4,27.3,27.9,29.0,-26.9,-99.9,74,24,27,30.22,30.10,29,-391,0,0.00
2012-4-30,60.2,34.2,29.1,35.0,-16.8,-99.9,71,26,26,30.27,29.97,6,-347,0,0.00
2012-5-1,-200.0,0.0,200.0,-99.9,-99.9,-99.9,0,0,100,30.02,29.86,0,-999,0,0.00
2012-5-2,65.8,30.1,50.8,55.0,-22.6,-99.9,89,39,68,30.02,29.92,5,-489,0,0.00
2012-5-3,72.0,33.9,52.9,60.0,-16.0,-99.9,92,42,64,30.02,29.83,4,-461,0,0.00
2012-5-4,68.9,31.6,56.6,62.0,-21.8,-99.9,97,40,71,29.90,29.81,21,-502,0,0.00
2012-5-5,67.3,35.7,49.9,49.0,-13.3,-99.9,85,36,39,30.02,29.87,13,-401,0,0.00
2012-5-6,70.4,35.8,41.9,42.0,-21.7,-99.9,77,23,24,30.05,29.96,6,-425,0,0.00
2012-5-7,72.5,36.8,47.3,56.0,-18.7,-99.9,77,27,30,30.03,29.87,6,-429,0,0.00
2012-5-8,56.9,14.1,51.7,56.0,-60.1,-99.9,97,25,96,29.87,29.68,2,-740,0,0.67
2012-5-9,67.1,32.5,56.5,56.0,-20.2,-99.9,98,38,56,29.71,29.56,10,-478,0,0.00
2012-5-10,49.8,23.5,43.9,44.0,-28.6,-99.9,90,41,72,29.76,29.48,19,-488,0,0.00
2012-5-11,60.9,31.2,36.6,41.0,-23.4,-99.9,96,28,31,30.04,29.76,26,-420,0,0.01
2012-5-12,75.1,48.0,39.2,53.0,7.5,-99.9,92,38,28,30.15,30.04,16,-250,0,0.00
2012-5-13,71.6,63.0,53.6,55.0,52.0,47.0,86,69,53,30.12,30.03,12,2,0,0.00
2012-5-14,70.3,61.4,56.3,59.0,56.4,53.0,96,84,59,30.06,29.98,4,0,0,0.17
2012-5-15,68.4,61.4,58.3,64.0,59.6,57.0,97,93,78,30.01,29.86,1,0,0,0.62
2012-5-16,76.0,61.2,49.2,62.0,53.2,40.0,98,77,41,29.97,29.72,26,5,0,0.06
2012-5-17,59.9,52.1,39.6,42.0,37.7,33.0,95,61,37,30.16,29.98,21,4,0,0.00
2012-5-18,72.7,55.8,37.6,48.0,38.7,29.0,92,58,21,30.21,30.07,6,1,0,0.00
2012-5-19,82.8,65.4,47.4,54.0,46.2,34.0,89,55,24,30.14,30.05,5,0,0,0.00
2012-5-20,87.0,69.8,51.7,60.0,52.6,47.0,87,58,27,30.18,30.08,3,0,0,0.00
2012-5-21,80.3,67.3,56.9,66.0,56.9,44.0,96,72,40,30.13,29.94,7,0,0,0.20
2012-5-22,75.3,65.2,61.6,64.0,62.1,61.0,97,90,61,29.93,29.76,4,0,0,0.21
2012-5-23,80.5,68.6,59.3,64.0,60.9,59.0,97,79,49,29.93,29.81,9,0,0,0.01
2012-5-24,79.6,69.9,60.5,66.0,61.9,58.0,92,76,58,30.07,29.94,6,0,0,0.00
2012-5-25,82.4,70.0,62.0,67.0,62.5,58.0,89,78,55,30.07,29.93,3,0,0,0.01
2012-5-26,79.6,71.4,61.2,66.0,55.0,42.0,95,60,28,30.11,29.97,16,2,0,0.00
2012-5-27,81.1,68.0,55.1,61.0,53.8,48.0,87,63,35,30.13,29.92,11,1,0,0.00
2012-5-28,85.3,72.2,59.8,71.0,62.5,52.0,92,72,57,29.96,29.74,7,0,0,0.07
2012-5-29,87.8,71.9,64.5,71.0,67.1,63.0,97,86,52,29.74,29.57,19,1,0,0.54
2012-5-30,74.0,66.6,57.5,64.0,55.4,46.0,98,71,39,29.74,29.66,18,4,0,0.00
2012-5-31,66.6,59.2,49.4,53.0,48.5,42.0,95,70,42,29.94,29.73,17,4,0,0.00
2012-6-1,64.5,58.2,49.5,58.0,50.5,43.0,92,76,59,29.97,29.69,5,0,0,0.18
2012-6-2,63.5,58.1,50.1,56.0,52.5,47.0,96,83,58,29.70,29.61,0,0,0,0.32
2012-6-3,64.0,56.9,47.9,57.0,50.7,46.0,94,80,64,29.70,29.58,13,2,0,0.04
2012-6-4,58.1,53.5,49.6,54.0,50.2,48.0,95,89,76,29.82,29.57,5,0,0,0.09
2012-6-5,68.3,56.9,46.8,52.0,47.9,43.0,96,75,41,29.91,29.82,13,1,0,0.01
2012-6-6,69.3,56.2,47.9,58.0,51.8,47.0,96,86,52,29.96,29.88,12,0,0,0.27
2012-6-7,70.1,57.7,48.6,59.0,53.5,48.0,97,87,54,29.96,29.86,6,0,0,0.89
2012-6-8,74.6,62.8,49.4,58.0,53.5,48.0,96,74,49,29.90,29.74,18,4,0,0.00
2012-6-9,68.6,61.6,55.0,62.0,57.8,53.0,96,87,69,29.93,29.78,7,0,0,0.01
2012-6-10,84.3,71.2,59.2,66.0,62.4,58.0,96,76,48,30.06,29.93,4,0,0,0.01
2012-6-11,88.2,75.4,64.2,70.0,64.7,61.0,91,71,48,30.09,29.98,6,0,0,0.00
2012-6-12,69.1,65.5,63.7,65.0,62.1,58.0,97,89,74,30.01,29.78,1,0,0,0.74
2012-6-13,70.9,63.1,53.9,63.0,53.7,51.0,97,73,53,30.11,29.82,22,6,0,0.00
2012-6-14,78.8,65.1,49.4,57.0,51.3,47.0,96,66,35,30.21,30.11,7,0,0,0.00
2012-6-15,82.6,68.6,52.2,61.0,53.6,47.0,84,61,35,30.26,30.17,4,0,0,0.00
2012-6-16,83.8,72.9,58.7,63.0,57.9,52.0,81,61,34,30.25,30.08,5,0,0,0.00
2012-6-17,81.1,71.5,61.2,61.0,56.9,53.0,84,62,39,30.09,29.90,6,0,0,0.00
2012-6-18,74.4,67.0,60.5,61.0,57.4,54.0,81,71,62,30.00,29.93,3,0,0,0.00
2012-6-19,84.5,72.3,62.6,72.0,65.0,58.0,96,79,59,30.02,29.91,6,0,0,0.12
2012-6-20,90.7,79.0,67.8,74.0,69.8,67.0,96,75,53,30.00,29.89,13,2,0,0.00
2012-6-21,90.7,80.2,65.5,71.0,67.9,63.0,93,68,45,29.90,29.70,13,2,0,0.00
2012-6-22,78.1,71.9,63.1,66.0,62.2,55.0,92,73,46,29.81,29.73,19,4,0,0.00
2012-6-23,76.8,63.9,56.7,62.0,58.9,55.0,96,84,56,29.98,29.81,11,2,0,0.78
2012-6-24,79.6,66.4,55.1,63.0,58.4,53.0,96,78,42,29.98,29.80,18,2,0,0.08
2012-6-25,68.6,61.7,53.3,61.0,55.9,48.0,97,82,64,29.80,29.66,26,9,0,0.06
2012-6-26,68.9,61.3,52.8,54.0,51.2,48.0,93,71,47,29.75,29.67,25,10,0,0.03
2012-6-27,74.9,64.6,52.8,56.0,52.2,47.0,90,66,43,29.76,29.66,25,7,0,0.00
2012-6-28,83.8,70.1,54.4,66.0,57.4,53.0,95,68,35,29.77,29.62,6,1,0,0.00
2012-6-29,83.4,74.4,65.8,69.0,60.9,51.0,97,67,34,29.63,29.55,18,4,0,0.41
2012-6-30,85.5,73.2,59.3,65.0,60.6,57.0,92,67,43,29.69,29.62,15,2,0,0.00
2012-7-1,81.2,72.0,60.7,63.0,60.2,58.0,92,68,45,29.83,29.70,21,4,0,0.00
2012-7-2,79.0,70.5,59.3,61.0,58.8,55.0,95,69,44,29.91,29.83,22,5,0,0.00
2012-7-3,85.3,71.5,58.4,69.0,59.8,53.0,93,70,33,29.93,29.72,4,0,0,0.06
2012-7-4,85.7,76.4,67.3,70.0,67.7,65.0,94,76,51,29.76,29.65,16,4,0,0.00
2012-7-5,81.6,73.9,65.3,69.0,62.0,57.0,88,67,50,29.86,29.68,11,4,0,0.00
2012-7-6,90.5,73.1,58.0,72.0,63.3,56.0,95,74,48,29.90,29.78,17,2,0,0.00
2012-7-7,77.4,71.1,65.2,68.0,65.0,63.0,94,81,63,29.84,29.77,7,1,0,0.05
2012-7-8,80.3,71.5,63.4,66.0,60.9,57.0,96,72,46,29.88,29.81,25,6,0,0.00
2012-7-9,78.3,68.1,57.5,57.0,52.3,47.0,89,60,35,29.96,29.87,20,4,0,0.00
2012-7-10,80.7,67.6,55.4,59.0,54.6,50.0,89,65,40,30.05,29.95,12,1,0,0.01
2012-7-11,85.3,70.8,55.0,61.0,53.4,43.0,92,60,24,30.13,30.05,6,1,0,0.00
2012-7-12,88.8,73.4,58.4,67.0,57.8,52.0,81,61,31,30.12,30.03,15,2,0,0.00
2012-7-13,91.2,77.4,63.1,68.0,60.3,54.0,81,59,28,30.14,30.04,4,0,0,0.00
2012-7-14,90.1,77.6,66.4,69.0,63.7,59.0,90,65,35,30.13,29.99,6,0,0,0.00
2012-7-15,79.9,73.3,67.4,73.0,68.2,63.0,96,84,71,30.04,29.86,4,0,0,0.13
2012-7-16,83.4,73.8,64.8,70.0,66.7,64.0,97,80,56,29.87,29.76,21,3,0,0.00
2012-7-17,94.3,81.1,66.9,72.0,66.5,62.0,92,65,34,29.78,29.59,14,3,0,0.00
2012-7-18,82.8,76.2,66.0,71.0,63.8,56.0,89,67,45,29.89,29.66,14,3,0,0.00
2012-7-19,79.2,69.4,59.6,58.0,54.0,50.0,82,59,36,29.95,29.88,11,2,0,0.00
2012-7-20,78.8,69.4,59.8,59.0,54.7,50.0,82,60,45,30.00,29.94,4,0,0,0.00
2012-7-21,83.4,71.5,62.7,62.0,57.9,48.0,89,65,29,30.05,29.95,6,0,0,0.00
2012-7-22,86.5,74.9,62.1,64.0,60.7,57.0,88,63,40,30.05,29.96,3,0,0,0.00
2012-7-23,91.4,76.9,67.8,74.0,67.8,63.0,96,75,45,29.98,29.62,12,1,0,1.36
2012-7-24,80.1,71.6,60.5,71.0,64.3,53.0,98,79,49,29.79,29.60,21,6,0,0.11
2012-7-25,78.6,67.8,53.3,59.0,54.0,49.0,93,64,36,29.89,29.70,14,3,0,0.00
2012-7-26,84.0,70.4,62.4,71.0,65.3,57.0,96,84,61,29.71,29.50,9,1,0,0.59
2012-7-27,81.1,72.8,66.8,69.0,65.7,61.0,97,79,51,29.84,29.58,5,0,0,0.14
2012-7-28,82.6,70.0,65.5,69.0,65.0,61.0,96,84,56,29.93,29.84,10,0,0,0.56
2012-7-29,84.1,73.1,62.1,67.0,60.7,55.0,96,69,37,29.98,29.91,8,1,0,0.01
2012-7-30,85.3,72.8,59.2,66.0,59.9,55.0,94,67,37,30.02,29.92,5,0,0,0.00
2012-7-31,85.7,75.2,66.0,70.0,65.5,63.0,96,73,49,29.95,29.78,11,0,0,0.42
2012-8-1,81.6,71.6,63.1,69.0,65.6,62.0,97,82,60,29.81,29.74,9,1,0,0.01
2012-8-2,83.6,73.4,62.4,68.0,64.1,60.0,96,75,46,29.85,29.79,12,1,0,0.00
2012-8-3,87.4,76.8,66.8,72.0,66.9,64.0,95,73,51,30.01,29.82,8,1,0,0.01
2012-8-4,92.5,81.0,68.4,74.0,67.6,64.0,88,66,42,30.09,29.98,5,0,0,0.00
2012-8-5,84.9,76.1,69.4,74.0,70.4,67.0,97,83,68,30.02,29.79,25,1,0,0.20
2012-8-6,74.2,68.2,60.4,68.0,58.1,54.0,96,71,51,30.02,29.90,16,5,0,0.00
2012-8-7,83.0,68.8,53.6,60.0,55.6,50.0,95,67,33,29.98,29.87,4,0,0,0.00
2012-8-8,86.7,71.5,58.1,66.0,59.3,54.0,88,67,40,29.93,29.84,8,1,0,0.00
2012-8-9,84.0,73.3,64.8,73.0,65.8,61.0,88,78,59,29.87,29.75,7,0,0,0.02
2012-8-10,74.9,68.4,64.5,69.0,66.5,63.0,97,93,81,29.82,29.67,4,0,0,1.27
2012-8-11,82.4,73.7,66.8,71.0,65.5,58.0,96,77,48,29.84,29.70,5,1,0,0.00
2012-8-12,76.3,67.5,60.7,67.0,60.9,57.0,96,80,63,29.89,29.82,4,0,0,0.06
2012-8-13,77.4,67.8,62.7,66.0,62.5,58.0,97,84,56,29.95,29.88,7,1,0,0.02
2012-8-14,79.9,68.9,61.5,66.0,61.8,58.0,96,79,53,29.91,29.77,6,0,0,0.85
2012-8-15,77.4,69.0,63.7,67.0,63.2,59.0,98,83,57,29.87,29.80,6,1,0,0.00
2012-8-16,78.5,67.9,59.8,64.0,60.7,56.0,97,80,52,29.91,29.79,12,1,0,0.00
2012-8-17,71.6,65.3,59.9,66.0,61.1,56.0,95,86,70,29.81,29.71,15,1,0,0.05
2012-8-18,70.4,63.0,53.1,61.0,52.5,44.0,95,71,39,29.92,29.80,16,4,0,0.00
2012-8-19,73.7,62.3,47.7,57.0,51.5,46.0,94,70,46,29.96,29.84,5,1,0,0.00
2012-8-20,75.4,64.2,53.1,61.0,56.1,51.0,93,76,53,29.89,29.79,12,1,0,0.00
2012-8-21,74.2,63.1,51.1,58.0,52.6,49.0,96,72,41,30.05,29.90,12,1,0,0.00
2012-8-22,79.8,66.8,51.4,60.0,53.7,48.0,88,65,38,30.11,30.02,7,0,0,0.00
2012-8-23,80.1,68.8,56.3,62.0,57.8,54.0,94,70,44,30.11,30.05,10,1,0,0.00
2012-8-24,84.7,71.4,56.6,66.0,59.0,54.0,91,67,41,30.14,30.08,4,0,0,0.00
2012-8-25,85.9,72.7,60.4,69.0,61.7,58.0,91,70,46,30.22,30.12,4,0,0,0.00
2012-8-26,84.7,73.5,61.3,63.0,60.7,57.0,93,67,39,30.25,30.09,4,0,0,0.00
2012-8-27,80.1,70.7,63.1,70.0,64.3,59.0,97,81,64,30.11,29.84,21,0,0,0.48
2012-8-28,77.6,70.2,60.1,68.0,62.1,50.0,98,77,54,29.91,29.78,22,7,0,0.14
2012-8-29,71.8,62.1,52.2,52.0,48.6,44.0,92,64,37,30.01,29.91,12,2,0,0.00
2012-8-30,78.1,62.0,47.9,62.0,54.1,46.0,94,77,53,30.04,29.93,11,0,0,0.00
2012-8-31,87.4,72.0,56.6,68.0,59.5,53.0,90,67,42,29.96,29.77,17,2,0,0.00
2012-9-1,81.8,72.0,62.7,66.0,60.8,52.0,96,71,36,30.03,29.88,12,2,0,0.00
2012-9-2,79.6,67.5,54.4,61.0,56.0,52.0,95,69,39,30.04,29.98,5,0,0,0.00
2012-9-3,77.0,67.8,58.4,66.0,59.6,52.0,95,76,64,30.07,30.00,3,0,0,0.10
2012-9-4,77.9,70.3,63.2,71.0,66.3,61.0,96,87,72,30.00,29.65,4,0,0,0.58
2012-9-5,78.1,70.0,63.5,70.0,63.6,59.0,96,81,53,29.80,29.65,17,2,0,0.00
2012-9-6,81.8,70.9,61.2,68.0,64.1,60.0,96,81,60,29.84,29.75,12,1,0,0.00
2012-9-7,81.4,70.3,60.9,66.0,61.8,56.0,96,77,44,29.89,29.71,6,0,0,0.00
2012-9-8,75.1,67.1,58.4,67.0,61.1,53.0,93,81,68,29.72,29.42,15,2,0,0.17
2012-9-9,67.3,59.5,52.5,55.0,51.7,48.0,95,77,55,29.91,29.71,17,4,0,0.01
2012-9-10,62.6,55.5,48.3,51.0,46.2,41.0,96,73,48,30.11,29.91,22,6,0,0.00
2012-9-11,68.3,56.7,42.8,53.0,46.7,41.0,93,72,46,30.24,30.11,4,0,0,0.00
2012-9-12,78.1,62.4,48.3,57.0,51.2,46.0,91,70,39,30.28,30.19,4,0,0,0.00
2012-9-13,77.7,63.6,54.7,62.0,55.1,51.0,88,75,48,30.27,30.16,4,0,0,0.00
2012-9-14,79.6,66.4,58.0,64.0,58.3,55.0,96,77,52,30.18,29.94,22,1,0,0.31
2012-9-15,63.7,57.7,51.9,57.0,51.1,46.0,96,80,54,30.13,30.05,20,5,0,0.00
2012-9-16,64.5,55.5,46.2,50.0,47.3,43.0,94,76,47,30.09,29.99,13,2,0,0.00
2012-9-17,73.3,59.9,48.0,57.0,50.9,46.0,93,74,43,30.02,29.89,4,0,0,0.00
2012-9-18,67.8,61.5,55.3,66.0,58.4,50.0,97,89,72,29.88,29.40,13,2,0,1.21
2012-9-19,59.2,52.9,43.8,52.0,44.1,36.0,92,74,43,30.16,29.70,17,4,0,0.01
2012-9-20,66.1,54.3,40.9,48.0,43.4,38.0,94,69,44,30.16,29.98,4,0,0,0.00
2012-9-21,70.4,60.5,53.9,61.0,54.7,47.0,96,82,68,30.00,29.87,2,0,0,0.24
2012-9-22,65.5,59.1,54.1,61.0,57.0,53.0,97,93,81,29.86,29.67,7,1,0,0.56
2012-9-23,58.3,51.4,44.1,54.0,45.5,38.0,97,82,47,30.08,29.82,18,4,0,0.03
2012-9-24,58.0,47.8,38.8,45.0,41.3,38.0,96,80,48,30.13,29.98,6,0,0,0.01
2012-9-25,68.8,55.3,42.5,51.0,43.0,39.0,91,66,39,30.02,29.95,4,0,0,0.01
2012-9-26,66.4,59.2,53.6,61.0,56.9,51.0,97,92,83,30.00,29.91,4,0,0,0.18
2012-9-27,61.6,56.2,48.5,59.0,45.6,40.0,92,70,45,30.19,30.00,11,2,0,0.00
2012-9-28,55.3,51.7,47.0,53.0,48.5,42.0,97,89,80,30.15,29.97,3,0,0,0.27
2012-9-29,60.2,54.8,51.6,52.0,49.2,44.0,97,83,56,29.96,29.85,15,3,0,0.04
2012-9-30,56.5,52.6,50.8,53.0,50.5,49.0,96,93,82,29.87,29.70,6,1,0,0.18
2012-10-1,63.9,55.6,51.3,56.0,52.0,50.0,96,88,64,29.90,29.65,11,3,0,0.18
2012-10-2,63.2,56.7,50.2,59.0,53.9,49.0,96,90,76,29.97,29.88,4,0,0,0.00
2012-10-3,66.1,62.3,58.9,65.0,60.9,57.0,97,95,92,30.07,29.93,3,0,0,0.10
2012-10-4,66.8,61.9,56.5,63.0,59.7,55.0,98,92,74,30.10,30.00,3,0,0,0.01
2012-10-5,67.6,59.3,51.0,61.0,55.4,50.0,96,87,73,29.99,29.83,6,0,0,0.00
2012-10-6,59.8,53.2,46.4,58.0,48.1,36.0,95,83,61,29.96,29.69,15,4,0,0.12
2012-10-7,52.3,46.8,42.8,44.0,40.5,36.0,96,79,62,30.05,29.95,8,1,0,0.26
2012-10-8,52.0,45.2,40.2,43.0,40.3,35.0,96,84,56,30.22,30.03,7,0,0,0.01
2012-10-9,57.5,47.5,36.8,47.0,40.4,35.0,92,78,51,30.22,30.00,3,0,0,0.00
2012-10-10,57.3,50.8,40.3,54.0,46.9,38.0,96,86,59,29.98,29.70,15,1,0,0.06
2012-10-11,50.5,43.6,40.6,40.0,37.2,30.0,94,80,47,30.11,29.86,15,4,0,0.18
2012-10-12,49.8,40.8,30.0,44.0,30.7,23.0,92,69,48,30.38,29.96,26,7,0,0.05
2012-10-13,50.1,38.5,27.2,38.0,28.6,24.0,92,70,40,30.45,30.08,3,0,0,0.02
2012-10-14,64.3,52.1,41.3,57.0,49.1,38.0,98,90,73,30.10,29.73,5,0,0,1.32
2012-10-15,62.3,56.8,48.3,56.0,50.6,37.0,96,80,58,29.72,29.55,21,4,0,0.08
2012-10-16,48.2,44.1,37.5,41.0,36.6,34.0,91,75,62,29.88,29.66,20,8,0,0.03
2012-10-17,60.7,47.4,34.7,42.0,38.0,34.0,95,73,45,29.95,29.82,4,0,0,0.00
2012-10-18,63.9,54.2,42.3,48.0,43.2,38.0,89,68,51,29.89,29.80,6,1,0,0.00
2012-10-19,59.0,55.5,52.5,58.0,53.9,46.0,97,94,67,29.84,29.58,6,0,0,0.98
2012-10-20,56.0,51.4,44.9,55.0,46.8,40.0,98,86,56,29.71,29.55,10,1,0,0.15
2012-10-21,56.5,50.6,45.5,47.0,44.3,42.0,95,80,61,29.95,29.70,18,4,0,0.09
2012-10-22,59.3,51.0,44.8,48.0,44.5,41.0,96,80,52,30.05,29.95,20,5,0,0.00
2012-10-23,54.1,48.2,40.9,51.0,45.6,39.0,96,91,83,30.09,30.01,2,0,0,0.04
2012-10-24,53.3,51.6,50.1,49.0,44.9,42.0,89,78,73,30.12,30.04,7,0,0,0.00
2012-10-25,67.1,57.7,51.9,57.0,51.1,46.0,90,79,69,30.14,30.05,5,0,0,0.00
2012-10-26,67.4,60.8,56.5,56.0,53.7,52.0,86,78,66,30.10,30.00,4,0,0,0.00
2012-10-27,65.3,58.4,52.3,54.0,52.1,49.0,90,80,63,30.03,29.87,4,0,0,0.00
2012-10-28,57.5,49.3,46.4,53.0,45.9,43.0,95,88,80,29.94,29.78,10,1,0,0.00
2012-10-29,62.4,53.0,47.3,53.0,47.1,44.0,90,81,70,29.78,28.97,20,4,0,0.03
2012-10-30,62.1,57.6,53.9,56.0,47.5,43.0,90,70,61,29.35,28.99,16,6,0,0.07
2012-10-31,53.2,44.2,41.5,47.0,40.3,38.0,95,86,68,29.43,29.33,6,0,0,0.05
2012-11-1,44.3,42.3,41.2,43.0,40.4,38.0,100,92,87,29.50,29.38,10,1,0,0.02
2012-11-2,41.1,39.1,37.3,39.0,36.5,35.0,94,90,81,29.71,29.51,15,6,0,0.00
2012-11-3,41.3,37.8,34.6,36.0,33.3,31.0,95,84,69,29.93,29.71,21,9,0,0.01
2012-11-4,39.3,36.6,34.3,32.0,28.9,24.0,89,74,64,30.01,29.93,22,11,0,0.00
2012-11-5,35.9,34.2,30.7,27.0,21.4,17.0,74,60,48,30.13,29.98,19,8,0,0.00
2012-11-6,38.2,31.8,27.5,22.0,19.5,17.0,77,61,46,30.18,30.05,6,0,0,0.00
2012-11-7,39.5,32.4,25.0,23.0,19.3,16.0,71,59,46,30.10,29.94,11,2,0,0.00
2012-11-8,39.1,33.4,27.5,26.0,23.2,20.0,81,67,55,30.00,29.91,21,10,0,0.00
2012-11-9,42.2,34.1,22.7,38.0,28.6,19.0,92,81,59,30.13,29.97,7,1,0,0.00
2012-11-10,49.6,44.0,38.5,39.0,37.7,36.0,95,79,62,30.27,30.12,4,0,0,0.00
2012-11-11,65.6,53.3,43.8,47.0,42.8,37.0,95,69,47,30.30,30.22,3,0,0,0.18
2012-11-12,66.3,57.3,45.5,51.0,45.4,39.0,91,65,56,30.25,29.91,35,4,0,0.18
2012-11-13,44.9,38.0,36.0,42.0,32.5,24.0,96,81,58,30.45,30.11,26,6,0,0.30
2012-11-14,41.6,34.6,30.0,26.0,23.5,20.0,81,65,45,30.56,30.44,8,0,0,0.00
2012-11-15,39.6,32.0,27.5,26.0,23.4,22.0,82,71,51,30.44,30.27,3,0,0,0.00
2012-11-16,43.8,31.6,23.3,30.0,25.0,21.0,93,78,52,30.46,30.28,5,0,0,0.00
2012-11-17,44.8,33.5,25.0,33.0,28.2,23.0,93,82,61,30.62,30.46,3,0,0,0.00
2012-11-18,45.1,34.9,26.6,31.0,27.4,24.0,91,75,56,30.64,30.50,4,0,0,0.01
2012-11-19,46.8,35.9,26.4,33.0,26.1,23.0,87,68,47,30.50,30.20,3,0,0,0.00
2012-11-20,46.8,36.7,29.0,35.0,27.8,23.0,84,71,47,30.20,30.07,1,0,0,0.00
2012-11-21,48.9,37.3,29.1,35.0,28.8,26.0,90,73,44,30.20,30.10,3,0,0,0.00
2012-11-22,51.6,38.6,27.6,37.0,28.2,25.0,88,69,39,30.19,29.98,3,0,0,0.00
2012-11-23,53.9,43.2,36.2,45.0,32.9,25.0,94,69,46,29.98,29.59,16,2,0,0.12
2012-11-24,38.6,32.3,29.7,30.0,25.0,21.0,94,75,62,29.76,29.59,29,14,0,0.02
2012-11-25,30.7,29.2,27.0,28.0,24.3,19.0,94,82,65,29.81,29.74,30,7,0,0.01
2012-11-26,36.3,32.2,29.1,31.0,28.8,26.0,95,87,70,30.16,29.78,13,1,0,0.08
2012-11-27,35.6,31.1,26.7,28.0,25.1,23.0,93,79,63,30.24,30.16,12,1,0,0.01
2012-11-28,35.8,31.7,29.8,30.0,26.9,22.0,94,83,58,30.18,30.08,14,1,0,0.01
2012-11-29,40.1,33.9,28.2,31.0,28.7,24.0,94,82,65,30.20,30.10,14,2,0,0.15
2012-11-30,29.0,25.5,23.5,23.0,17.6,13.0,81,72,62,30.42,30.21,14,2,0,0.00
2012-12-1,34.7,30.0,24.1,32.0,24.6,18.0,89,80,75,30.42,30.27,7,1,0,0.01
2012-12-2,46.0,40.8,35.2,44.0,38.2,32.0,98,90,77,30.26,29.91,2,0,0,0.63
2012-12-3,48.3,42.9,38.0,48.0,40.4,36.0,98,91,80,30.18,29.96,16,2,0,0.00
2012-12-4,61.8,50.6,39.8,53.0,46.6,37.0,95,86,69,30.12,29.81,26,2,0,0.24
2012-12-5,47.4,36.4,26.3,46.0,29.5,15.0,98,77,58,30.27,29.87,25,12,0,0.25
2012-12-6,30.9,26.5,20.3,19.0,16.8,14.0,76,67,58,30.36,30.09,16,3,0,0.00
2012-12-7,38.6,33.8,30.7,34.0,26.1,16.0,95,75,53,30.09,29.95,2,0,0,0.08
2012-12-8,44.6,38.7,33.1,43.0,37.1,32.0,97,94,82,29.99,29.72,18,2,0,0.07
2012-12-9,39.6,36.7,32.1,34.0,30.8,28.0,94,79,68,30.23,29.87,20,2,0,0.17
2012-12-10,50.2,41.7,35.9,49.0,40.3,34.0,98,95,88,29.87,29.43,16,2,0,1.09
2012-12-11,37.3,31.4,28.5,36.0,26.3,22.0,94,81,68,30.15,29.59,18,6,0,0.00
2012-12-12,38.9,30.8,25.4,28.0,25.5,23.0,94,82,56,30.35,30.15,16,1,0,0.01
2012-12-13,39.2,32.0,27.2,30.0,27.3,25.0,93,83,66,30.40,30.20,1,0,0,0.00
2012-12-14,41.2,34.1,25.7,34.0,28.0,22.0,88,79,62,30.19,30.09,11,2,0,0.00
2012-12-15,37.8,34.0,30.0,33.0,25.5,21.0,89,71,60,30.26,30.09,4,0,0,0.00
2012-12-16,35.5,33.9,31.6,33.0,28.6,21.0,93,81,65,30.08,29.83,9,1,0,0.17
2012-12-17,39.8,37.4,34.3,37.0,35.0,32.0,95,91,87,29.82,29.62,4,0,0,0.38
2012-12-18,42.1,39.2,35.2,41.0,37.8,33.0,96,94,88,29.61,29.37,18,3,0,0.62
2012-12-19,38.6,35.9,32.1,35.0,29.6,22.0,96,78,63,30.14,29.58,21,11,0,0.01
2012-12-20,36.0,31.1,23.2,32.0,24.3,21.0,92,76,64,30.18,29.65,7,2,0,0.02
2012-12-21,37.3,34.3,32.5,35.0,32.6,31.0,96,93,85,29.63,29.04,13,3,0,1.16
2012-12-22,33.4,27.6,24.7,32.0,23.4,20.0,95,84,72,29.78,29.12,27,16,0,0.01
2012-12-23,33.1,29.5,26.4,28.0,24.6,21.0,91,82,69,29.89,29.73,18,4,0,0.01
2012-12-24,31.9,28.1,25.8,25.0,21.4,18.0,89,76,68,30.04,29.90,12,2,0,0.00
2012-12-25,30.0,24.5,16.9,24.0,19.4,11.0,92,81,70,30.32,29.90,7,0,0,0.00
2012-12-26,26.6,19.6,8.4,25.0,14.9,5.0,94,82,71,30.35,29.74,11,0,0,0.00
2012-12-27,28.7,23.8,19.7,27.0,21.2,17.0,95,90,84,29.91,29.58,18,6,0,0.00
2012-12-28,26.6,24.6,22.1,25.0,22.3,19.0,93,91,88,30.07,29.91,9,2,0,0.00
2012-12-29,28.2,26.0,18.6,26.0,24.1,15.0,95,92,86,30.00,29.56,10,1,0,0.00
2012-12-30,19.5,17.0,12.4,15.0,11.6,9.0,85,79,72,30.16,29.66,28,9,0,0.00
2012-12-31,32.7,27.1,17.3,26.0,21.2,14.0,90,79,64,30.11,29.72,7,0,0,0.00
2013-1-1,32.4,20.4,6.9,29.0,13.5,3.0,93,75,65,29.96,29.72,25,11,0,0.00